Wind_Speed
21 21 20 20 20 19 18 17 16 14 13 11 11 12 12 11 9 9 8 6 7 6 5 3 3 2 2 1 0 2 4 5 7 9 10 10 11 11 11 11 11 10 10 10 10 9 8
21 20 20 19 18 17 16 13 13 13 13 12 12 11 11 11 10 9 8 6 5 4 2 1 1 2 1 2 3 4 6 7 9 10 12 12 13 13 13 14 14 13 13 13 13 12 12
20 19 18 17 15 13 12 12 11 10 10 10 11 12 12 12 11 9 7 4 2 1 2 3 3 3 3 3 4 6 8 10 11 13 14 15 15 15 15 15 15 16 16 17 17 15 14
17 16 14 13 12 11 10 9 9 9 8 8 8 9 9 9 7 6 4 2 2 3 4 5 5 5 5 6 8 10 12 13 14 16 17 17 17 17 17 17 18 18 19 21 20 18 17
13 12 11 10 10 9 7 7 6 5 6 6 6 6 6 5 4 3 2 3 3 4 5 6 7 7 8 10 12 13 14 15 16 17 17 18 18 18 19 19 19 19 22 23 22 24 22
11 11 10 9 8 6 5 5 5 4 4 4 4 3 4 4 4 5 5 5 6 7 8 9 9 9 10 12 14 15 16 16 17 18 18 19 19 19 20 20 21 23 23 24 25 25 24
11 10 9 8 7 6 6 5 6 5 5 5 5 6 6 6 6 7 8 10 11 11 12 13 14 15 15 16 17 18 19 19 19 19 19 20 20 21 21 22 23 25 26 26 25 26 25
11 10 10 9 8 7 7 8 8 9 9 9 9 9 9 10 11 12 13 14 14 15 16 17 19 19 19 20 20 21 21 20 20 21 21 22 22 22 24 25 26 27 28 29 29 29 28
11 11 10 9 9 9 9 9 10 10 11 11 12 12 13 13 14 15 16 17 18 19 20 20 21 22 23 24 22 23 22 21 22 23 23 24 25 25 26 27 28 31 32 33 34 33 33
12 11 11 11 10 10 10 11 11 11 11 11 12 13 14 15 16 17 19 20 20 21 22 21 21 22 22 21 23 24 24 24 25 26 27 27 27 28 29 29 31 33 34 35 36 37 37
15 14 14 15 15 15 14 14 14 13 13 14 15 16 17 17 18 19 19 19 19 20 23 22 21 22 24 25 26 25 27 27 28 29 30 30 30 31 30 32 33 34 36 38 39 39 38
19 18 18 17 17 18 18 17 17 17 17 17 18 18 19 19 20 20 21 22 23 23 25 25 24 25 26 27 28 30 30 30 31 31 31 33 32 32 33 34 35 38 39 41 42 41 38
24 24 23 23 22 22 22 22 22 22 23 23 23 24 23 22 22 22 22 22 23 24 25 26 26 27 28 30 30 32 32 32 33 35 33 34 32 33 35 35 37 39 40 42 44 43 40
26 28 28 27 27 27 27 27 27 26 26 26 27 26 26 25 24 24 24 24 25 25 26 28 28 29 30 31 33 34 34 33 33 36 37 38 38 36 35 37 39 39 41 40 43 41 42
29 29 29 29 30 30 30 30 30 29 29 27 26 26 26 26 26 26 26 27 29 29 30 31 32 34 33 34 37 37 37 36 36 36 38 41 42 42 39 38 38 40 41 39 43 41 44
34 34 33 32 32 32 32 32 32 32 31 31 30 29 30 30 30 30 31 32 33 33 34 35 35 38 38 39 39 40 43 41 40 39 41 43 43 44 43 40 39 41 42 43 44 44 46
38 38 38 37 36 35 36 36 36 35 35 35 35 35 35 35 35 36 37 37 36 37 38 39 39 42 41 43 44 46 46 45 44 43 44 45 45 47 46 46 42 41 42 43 44 45 49
43 43 43 43 42 41 40 40 40 40 40 40 40 41 40 40 41 41 42 41 41 40 41 44 45 45 47 48 49 49 47 47 47 47 47 48 50 49 49 51 47 44 43 45 48 39 42
47 48 47 47 47 47 46 45 46 45 45 45 46 45 45 45 46 47 46 46 46 45 45 48 50 51 52 52 53 54 52 49 49 50 50 50 51 51 51 53 50 49 46 44 44 44 50
52 52 53 53 52 51 51 50 50 50 49 50 50 50 49 50 51 52 52 51 49 49 50 52 53 54 54 55 55 56 55 56 55 54 53 51 51 53 53 53 52 52 52 47 49 54 53
56 56 56 56 56 56 55 54 54 54 53 54 55 55 53 54 53 54 55 56 52 53 55 56 57 55 56 57 54 55 55 56 56 56 55 55 55 54 52 55 54 53 52 51 52 53 57
50 54 58 59 58 56 57 56 57 56 57 58 58 56 57 56 56 55 56 56 57 59 62 64 63 57 56 49 45 46 47 48 47 47 48 51 53 52 52 51 48 51 51 49 48 49 54
52 52 52 52 53 57 57 62 63 63 63 62 63 66 67 66 64 63 60 62 65 66 65 63 59 54 52 51 51 48 49 48 48 48 47 48 46 44 45 45 50 55 50 52 53 52 53
58 59 59 57 55 54 54 51 51 52 53 54 52 56 59 62 64 63 59 51 51 52 53 51 54 54 53 55 53 50 48 47 47 48 48 51 51 54 55 52 58 56 54 53 54 59 60
58 60 62 63 62 61 59 60 59 57 55 56 55 51 53 57 54 52 51 53 54 51 50 50 51 54 52 52 51 50 46 46 46 47 49 50 52 53 54 55 57 51 56 54 54 50 52
64 64 63 62 63 64 64 62 61 61 60 59 58 56 56 57 56 56 56 54 53 51 50 49 48 49 51 51 50 51 50 50 52 53 51 52 51 50 51 51 54 51 48 55 51 55 56
68 68 68 68 67 65 66 66 66 65 64 63 64 65 66 65 62 63 63 62 59 58 58 56 54 54 54 53 55 56 53 53 52 53 54 55 51 49 49 42 42 44 54 59 59 60 65
73 72 72 72 71 71 70 70 69 68 68 67 66 68 68 67 63 63 62 61 58 58 55 55 53 52 52 52 53 53 52 55 55 53 45 38 36 43 44 46 51 62 65 65 66 65 66
83 81 79 79 78 77 76 75 74 74 73 72 68 70 72 72 67 65 64 62 61 59 60 58 57 54 56 55 54 50 41 56 59 49 45 50 51 54 59 64 66 65 65 53 63 76 66
Wind_Direction
126 123 123 123 118 113 111 109 106 106 112 123 133 138 140 142 142 139 137 140 142 144 162 172 167 167 169 182 353 329 330 333 332 339 349 348 352 344 333 330 327 329 332 336 334 325 337
128 127 127 124 116 110 106 107 108 106 105 110 121 130 137 139 137 135 133 135 135 148 180 232 267 238 272 297 310 314 323 324 325 328 325 327 330 334 335 330 323 320 320 324 328 323 313
136 133 129 128 126 122 114 106 102 106 107 108 113 119 127 129 128 128 132 134 138 184 274 286 283 281 286 306 307 310 315 312 314 319 322 322 323 320 321 327 325 319 317 321 320 320 308
139 139 141 142 142 136 127 117 106 104 117 123 127 130 133 135 136 139 149 173 246 272 283 295 297 296 290 299 305 307 310 314 314 315 316 318 319 317 316 319 321 324 322 318 317 316 312
154 155 157 160 159 147 138 134 131 129 128 136 144 151 155 160 166 186 241 280 283 279 278 291 290 290 296 299 303 307 310 310 313 314 315 317 317 317 316 314 313 315 319 320 323 320 314
169 170 170 170 169 169 164 163 170 171 181 184 179 186 207 221 236 256 274 278 272 272 282 292 294 296 298 298 299 304 305 308 310 312 315 316 317 317 316 314 314 316 315 314 315 318 315
180 182 181 185 190 199 207 213 219 230 239 238 239 244 249 254 257 259 264 269 277 282 286 290 292 292 294 298 299 302 305 307 309 312 313 313 314 313 313 313 312 312 313 313 311 310 312
198 201 203 208 210 215 222 229 239 248 256 261 264 264 263 263 264 266 269 271 275 280 282 286 290 293 293 297 297 298 302 303 307 309 310 311 311 310 310 308 310 310 311 310 309 307 307
207 210 214 218 223 228 235 240 245 251 258 263 265 268 273 276 275 276 277 280 283 286 286 289 291 294 293 293 292 297 299 303 302 304 305 308 308 308 308 308 308 309 309 309 309 307 306
225 224 226 229 231 233 238 244 249 255 260 263 265 266 268 272 275 277 279 282 285 288 289 291 292 293 293 293 294 298 298 300 301 303 303 303 305 307 307 307 309 309 309 308 306 306 306
238 239 239 241 243 246 250 252 255 259 264 267 271 273 273 273 276 278 280 283 284 286 292 294 296 295 296 296 296 294 298 299 300 301 302 303 304 306 307 309 310 310 309 307 305 304 304
239 242 245 248 250 251 253 255 258 263 268 271 272 273 275 276 277 277 279 281 284 287 291 292 293 296 295 297 296 298 298 299 298 298 300 300 304 306 307 309 310 309 307 307 304 301 302
246 246 247 249 252 255 258 260 263 266 271 273 275 277 276 276 277 279 280 282 284 287 291 292 295 295 296 296 296 296 297 298 298 300 300 299 302 304 306 306 307 305 305 304 304 305 304
247 250 252 254 256 258 261 263 266 269 271 274 276 276 276 276 276 277 279 281 283 287 289 292 295 295 297 296 297 296 298 298 298 298 300 301 305 304 304 305 304 303 302 300 299 301 301
248 251 254 256 259 261 263 265 267 269 270 270 270 273 275 277 279 280 281 283 286 288 291 292 294 295 296 295 296 297 297 296 297 295 295 298 302 303 304 303 300 301 299 297 294 293 295
253 254 254 255 258 261 263 264 266 267 267 269 270 271 273 274 277 279 281 283 286 289 292 294 296 298 299 300 296 296 296 298 293 292 292 294 295 299 300 299 298 296 298 298 295 296 298
255 257 259 261 260 261 263 265 266 267 269 270 272 272 273 275 277 280 281 283 286 289 293 295 297 298 298 298 298 296 296 296 294 291 291 292 293 297 299 299 298 295 296 295 296 294 291
258 259 260 260 261 261 262 263 265 267 269 269 271 273 275 276 278 279 281 283 286 288 290 292 293 294 295 296 295 293 294 293 293 292 292 293 294 297 299 298 296 297 296 296 297 292 283
260 261 260 260 261 263 264 265 266 267 268 269 270 272 274 275 276 277 279 282 284 287 289 290 292 293 295 295 293 293 293 292 290 291 292 292 293 296 297 296 294 296 296 293 292 287 287
261 263 262 262 261 261 262 264 266 267 268 269 270 271 272 274 276 278 281 282 285 288 289 291 294 295 296 294 290 292 293 290 290 291 292 292 291 293 291 289 289 291 290 285 284 282 289
258 256 256 258 260 261 262 263 265 266 269 271 272 272 272 273 274 277 279 282 284 286 287 291 293 294 294 294 292 292 289 289 289 289 291 292 292 289 289 289 286 287 287 290 291 288 289
263 259 257 259 259 262 262 264 264 265 267 270 272 271 272 273 274 276 278 280 282 284 287 289 289 289 291 291 290 294 295 296 292 292 290 291 291 291 286 289 287 289 294 294 292 293 293
262 263 264 263 263 262 264 262 263 265 266 267 270 270 271 272 275 275 276 279 281 282 282 283 283 284 285 286 287 291 291 292 291 293 297 293 292 294 291 295 292 291 295 293 293 291 297
262 262 263 263 264 263 265 262 263 266 269 270 272 273 273 272 272 275 279 282 282 283 284 285 284 284 285 285 286 288 290 290 288 290 289 289 292 295 297 295 293 297 296 295 293 295 295
263 263 264 265 264 266 266 264 266 266 267 268 270 271 273 276 275 274 276 279 280 282 285 286 286 286 285 286 287 287 284 284 283 285 286 289 293 294 293 294 295 291 290 289 294 291 288
265 266 265 263 264 266 267 267 266 264 263 264 266 269 273 273 273 274 276 278 278 279 280 284 286 287 285 285 286 284 287 289 290 289 290 289 288 288 290 290 291 292 291 300 296 287 288
263 263 264 266 266 264 263 265 266 267 266 265 265 268 270 271 272 275 276 278 280 282 283 284 283 283 283 283 282 286 287 287 289 289 290 289 290 288 290 283 273 274 288 293 288 291 292
263 262 263 263 264 265 265 266 266 265 266 266 267 269 270 270 270 271 273 277 279 280 281 282 281 280 280 278 278 281 283 282 284 288 288 289 282 285 283 271 275 284 289 293 292 292 298
262 262 261 261 262 263 263 264 265 266 268 267 265 267 269 270 270 269 269 271 273 275 276 278 280 279 279 279 281 284 276 279 286 286 274 276 271 269 270 276 281 286 290 286 287 294 290
Height
5836 5837 5838 5839 5840 5841 5842 5843 5843 5843 5843 5844 5845 5846 5847 5848 5848 5849 5850 5850 5851 5851 5851 5851 5851 5850 5850 5849 5848 5847 5845 5844 5842 5840 5837 5836 5834 5831 5828 5826 5825 5822 5820 5817 5814 5811 5808
5838 5840 5841 5842 5842 5843 5844 5845 5845 5846 5846 5846 5847 5847 5848 5849 5850 5850 5851 5852 5852 5852 5853 5852 5851 5851 5850 5850 5848 5846 5844 5843 5840 5838 5836 5834 5832 5830 5827 5824 5822 5820 5818 5816 5814 5810 5807
5840 5841 5842 5843 5844 5845 5846 5847 5847 5847 5848 5848 5849 5849 5850 5851 5851 5852 5852 5853 5852 5852 5852 5852 5851 5850 5850 5849 5847 5845 5843 5841 5839 5837 5834 5832 5830 5828 5825 5823 5820 5818 5816 5813 5811 5808 5804
5841 5842 5844 5845 5846 5847 5847 5848 5849 5849 5850 5850 5851 5851 5852 5852 5853 5853 5853 5853 5853 5852 5852 5851 5851 5850 5849 5847 5845 5844 5842 5840 5837 5835 5833 5830 5827 5825 5823 5820 5818 5816 5813 5810 5807 5805 5802
5842 5844 5845 5846 5847 5847 5848 5849 5850 5851 5852 5852 5853 5853 5853 5854 5854 5854 5854 5853 5852 5852 5851 5851 5850 5848 5848 5846 5844 5841 5839 5838 5835 5833 5830 5828 5825 5823 5820 5818 5816 5813 5809 5805 5803 5799 5797
5844 5845 5845 5846 5847 5847 5848 5849 5851 5852 5853 5853 5853 5854 5854 5854 5854 5854 5853 5853 5852 5851 5851 5849 5848 5848 5846 5844 5841 5839 5837 5835 5833 5830 5828 5826 5823 5821 5818 5815 5813 5809 5806 5803 5799 5796 5792
5844 5845 5846 5847 5847 5847 5848 5849 5850 5851 5852 5852 5853 5853 5853 5853 5852 5852 5852 5852 5852 5851 5849 5848 5847 5845 5843 5841 5838 5836 5835 5832 5830 5827 5825 5823 5821 5817 5815 5812 5809 5806 5802 5799 5796 5791 5788
5843 5844 5845 5846 5847 5847 5848 5849 5849 5850 5850 5850 5851 5851 5851 5850 5850 5850 5849 5849 5848 5848 5847 5845 5843 5842 5839 5837 5835 5833 5832 5830 5826 5824 5822 5820 5817 5814 5811 5808 5805 5802 5799 5794 5790 5786 5782
5842 5843 5844 5845 5846 5846 5847 5847 5848 5848 5849 5849 5849 5849 5848 5848 5848 5848 5847 5847 5845 5844 5843 5842 5840 5837 5836 5834 5832 5830 5828 5825 5823 5821 5818 5816 5813 5810 5807 5804 5800 5796 5791 5787 5783 5779 5775
5841 5842 5843 5844 5844 5845 5845 5845 5846 5846 5846 5846 5846 5846 5845 5845 5846 5844 5843 5842 5841 5840 5838 5838 5836 5833 5832 5830 5828 5825 5823 5822 5819 5816 5813 5811 5808 5805 5802 5798 5795 5791 5786 5781 5776 5771 5767
5839 5840 5841 5841 5842 5842 5842 5843 5843 5843 5843 5843 5843 5843 5842 5841 5841 5840 5840 5838 5837 5835 5834 5834 5831 5829 5827 5826 5824 5821 5818 5816 5813 5811 5809 5806 5802 5799 5796 5793 5788 5784 5779 5774 5768 5763 5759
5837 5837 5838 5839 5839 5840 5840 5839 5840 5840 5840 5840 5840 5839 5838 5838 5837 5836 5834 5833 5833 5832 5829 5828 5826 5824 5823 5820 5818 5816 5814 5811 5808 5805 5802 5798 5796 5793 5789 5785 5780 5776 5771 5766 5760 5755 5752
5832 5833 5833 5834 5835 5835 5835 5836 5836 5836 5836 5836 5835 5834 5833 5832 5832 5830 5829 5828 5828 5826 5825 5823 5820 5818 5817 5814 5812 5809 5807 5805 5802 5797 5795 5792 5789 5785 5782 5777 5773 5767 5762 5757 5750 5746 5742
5827 5828 5829 5829 5830 5830 5830 5831 5831 5831 5830 5830 5829 5829 5828 5827 5826 5825 5824 5823 5821 5820 5818 5816 5814 5812 5810 5809 5806 5803 5800 5798 5795 5790 5786 5782 5779 5778 5774 5770 5765 5759 5754 5750 5741 5739 5735
5820 5821 5822 5823 5824 5824 5824 5824 5824 5825 5824 5824 5824 5823 5822 5822 5820 5819 5819 5817 5815 5814 5812 5810 5808 5805 5804 5801 5797 5794 5792 5790 5787 5783 5779 5772 5770 5766 5765 5761 5756 5752 5746 5742 5734 5734 5727
5814 5814 5815 5817 5817 5817 5817 5818 5818 5819 5819 5818 5817 5817 5816 5815 5814 5813 5812 5810 5808 5806 5804 5802 5799 5797 5794 5791 5789 5786 5781 5781 5777 5774 5769 5765 5761 5757 5755 5752 5748 5742 5738 5732 5726 5722 5717
5806 5807 5808 5809 5810 5810 5810 5810 5811 5811 5811 5810 5810 5809 5808 5807 5806 5805 5803 5801 5800 5798 5795 5793 5791 5787 5785 5781 5779 5774 5772 5769 5766 5763 5759 5754 5752 5749 5744 5740 5736 5733 5727 5723 5717 5713 5706
5797 5798 5799 5800 5800 5801 5802 5802 5802 5802 5802 5800 5800 5800 5800 5798 5797 5795 5793 5791 5790 5788 5786 5782 5780 5777 5774 5771 5768 5764 5762 5758 5755 5751 5747 5744 5739 5736 5733 5726 5723 5720 5717 5711 5705 5702 5694
5787 5788 5788 5789 5790 5791 5791 5792 5792 5792 5791 5791 5790 5790 5789 5788 5786 5784 5783 5781 5779 5778 5775 5772 5769 5766 5764 5761 5755 5752 5750 5749 5743 5740 5736 5733 5727 5723 5721 5716 5712 5707 5704 5701 5696 5689 5685
5775 5776 5777 5778 5778 5779 5780 5780 5780 5780 5779 5780 5779 5779 5779 5777 5775 5774 5771 5771 5769 5767 5764 5760 5757 5754 5751 5748 5743 5740 5737 5732 5730 5727 5724 5721 5718 5713 5708 5705 5700 5693 5691 5689 5684 5675 5674
5761 5762 5763 5763 5765 5766 5767 5767 5767 5767 5766 5767 5766 5765 5765 5765 5764 5762 5760 5759 5757 5754 5751 5748 5747 5743 5738 5735 5731 5726 5724 5721 5718 5713 5709 5705 5703 5699 5695 5693 5687 5683 5679 5676 5668 5665 5656
5748 5749 5750 5750 5751 5752 5753 5753 5753 5753 5753 5753 5752 5752 5751 5751 5750 5748 5746 5747 5743 5741 5738 5736 5733 5730 5725 5722 5717 5714 5711 5706 5703 5700 5696 5693 5686 5683 5681 5679 5673 5670 5667 5663 5657 5652 5644
5737 5737 5737 5737 5737 5738 5738 5738 5739 5739 5738 5737 5737 5735 5733 5736 5735 5734 5734 5731 5728 5725 5725 5722 5718 5715 5713 5709 5706 5704 5700 5697 5692 5687 5684 5679 5675 5670 5668 5664 5660 5658 5656 5649 5645 5640 5636
5722 5723 5724 5724 5724 5725 5725 5724 5724 5724 5723 5723 5723 5719 5718 5719 5717 5719 5717 5716 5713 5710 5709 5707 5705 5701 5699 5694 5692 5689 5687 5684 5681 5679 5673 5669 5664 5658 5655 5651 5645 5644 5640 5634 5628 5625 5621
5706 5707 5708 5707 5709 5710 5710 5710 5710 5710 5709 5708 5708 5706 5702 5702 5704 5704 5705 5702 5700 5698 5695 5694 5693 5687 5684 5681 5676 5674 5674 5672 5670 5667 5662 5655 5649 5644 5638 5635 5633 5632 5625 5623 5615 5612 5607
5689 5689 5690 5691 5691 5692 5692 5692 5693 5693 5694 5694 5694 5692 5687 5685 5690 5689 5688 5688 5687 5685 5684 5681 5678 5675 5672 5668 5664 5659 5658 5654 5655 5651 5649 5643 5636 5632 5627 5622 5618 5616 5610 5606 5602 5596 5595
5672 5671 5671 5672 5672 5673 5674 5674 5674 5674 5674 5677 5678 5674 5669 5669 5678 5674 5672 5672 5672 5671 5668 5668 5665 5661 5658 5654 5650 5646 5644 5641 5637 5634 5632 5627 5622 5617 5614 5607 5605 5602 5601 5594 5589 5585 5576
5651 5651 5652 5653 5653 5654 5655 5656 5655 5655 5654 5655 5658 5654 5651 5651 5660 5659 5658 5658 5655 5654 5653 5652 5650 5647 5642 5638 5635 5633 5630 5627 5623 5623 5618 5615 5610 5606 5601 5596 5592 5589 5585 5579 5572 5564 5560
5627 5628 5629 5630 5632 5633 5633 5634 5634 5635 5634 5635 5639 5633 5630 5631 5642 5641 5643 5642 5640 5640 5636 5635 5635 5632 5628 5624 5620 5617 5617 5612 5611 5609 5606 5602 5601 5596 5591 5584 5577 5575 5570 5563 5554 5549 5543